Location: Newark
(30.0333°N, 31.2167°E)
Time: 01:50:22
(UTC+00:00)

Tiros 1 despin weight - Pass Details

Date: 26 January 2020
Orbit: 594 x 642 km, 48.2° (Epoch: 19 February)

Event Time Altitude Azimuth Distance (km) Brightness Sun altitude
Rises 13:24:17 0° 324° (NW) 2,908 ? 22.0°
Reaches altitude 10° 13:27:36 10° 349° (NNW) 2,009 ? 21.5°
Maximum altitude 13:30:10 15° 22° (NNE) 1,733 ? 21.0°
Drops below altitude 10° 13:32:44 10° 56° (NE) 2,020 ? 20.6°
Sets 13:36:04 0° 81° (E) 2,932 ? 20.0°
